Regional Weather Roundup
Issued by NWS

Home | Current Version | Previous Version | Text Only | Print | Product List | Glossary Off
Versions: 1 2 3 4 5 6 7 8 9 10 11 12 13 14 15 16 17 18 19 20 21 22 23 24 25 26 27 28 29 30 31 32 33 34 35 36 37 38 39 40 41 42 43 44 45 46 47 48 49 50

000
ASUS43 KMKX 280911
RWRWI

WISCONSIN REGIONAL WEATHER ROUNDUP
NATIONAL WEATHER SERVICE MILWAUKEE/SULLIVAN WI
300 AM CST FRI NOV 28 2014

NOTE: "FAIR" INDICATES FEW OR NO CLOUDS BELOW 12,000 FEET WITH NO
SIGNIFICANT WEATHER AND/OR OBSTRUCTIONS TO VISIBILITY.

WIZ001-002-006>008-014>016-023>028-281000-
NORTHWEST WISCONSIN

CITY           SKY/WX    TMP DP  RH WIND       PRES   REMARKS
SUPERIOR ARPT  FLURRIES   8   2  74 CALM      30.22F
ASHLAND        CLOUDY     6   0  76 CALM      30.24F
HAYWARD        LGT SNOW   7  -1  70 S6        30.18F WCI  -3
SIREN          LGT SNOW   8   5  84 SE7       30.17F WCI  -3
CUMBERLAND     LGT SNOW   9   3  78 SE9       30.16F WCI  -5
RICE LAKE      LGT SNOW   8   4  84 SE8       30.21F VSB 1   WCI  -4
CHETEK         LGT SNOW   8   4  85 E6        30.20F WCI  -2
LADYSMITH      LGT SNOW   8   3  80 SE3       30.22F
EAU CLAIRE     LGT SNOW   9   4  80 SE7       30.22F VSB 1   WCI  -2
MENOMONIE      LGT SNOW  10   6  84 SE10      30.22F WCI  -4
NEW RICHMOND   LGT SNOW   9   6  84 SE9       30.17F WCI  -4
OSCEOLA        LGT SNOW  10   7  87 SE8       30.19F WCI  -2
$$

WIZ003>005-009-010-017-018-281000-
NORTH CENTRAL WISCONSIN

CITY           SKY/WX    TMP DP  RH WIND       PRES   REMARKS
MANITOWISH WTR CLOUDY     0  -3  86 S3        30.17F
ARBOR VITAE    CLOUDY     4   0  84 CALM      30.18F
WOODRUFF       CLOUDY     4   0  84 CALM      30.18F
RHINELANDER    CLOUDY     1  -3  83 CALM      30.20F
EAGLE RIVER    CLOUDY     1  -4  80 CALM      30.20F
LAND O LAKES   CLOUDY    -2  -6  84 CALM      30.19F
PHILLIPS       MOCLDY     3  -2  79 SE5       30.19F WCI  -6
TOMAHAWK       PTCLDY     2  -1  85 CALM      30.21F
MEDFORD        FLURRIES   6  -1  74 SE6       30.20F WCI  -5
MERRILL        MOCLDY     3   0  85 CALM      30.23F
$$

WIZ029-030-035-036-043>047-281000-
CENTRAL WISCONSIN

CITY           SKY/WX    TMP DP  RH WIND       PRES   REMARKS
WAUSAU         CLOUDY     5   2  87 SE3       30.24F
MOSINEE        CLOUDY     5   3  92 CALM      30.27F
MARSHFIELD     LGT SNOW   7   2  80 SE5       30.24F WCI  -2
STEVENS POINT  CLOUDY     4   1  87 CALM      30.28F
WAUPACA        CLOUDY     8   3  82 CALM      30.33F
WAUTOMA        CLOUDY     7   3  83 CALM      30.33F
WISC RAPIDS    SNOW       7   1  76 SE3       30.29F
CAMP DOUGLAS   FLURRIES  10   5  79 SE5       30.28F WCI   2
$$

WIZ011>013-019>022-031-037>040-048>050-281000-
NORTHEAST WISCONSIN

CITY           SKY/WX    TMP DP  RH WIND       PRES   REMARKS
ANTIGO         MOCLDY     2  -1  88 CALM      30.22F
SHAWANO        MOCLDY     8   4  84 CALM      30.33S
OCONTO         MOCLDY     5   3  91 W3        30.35R
STURGEON BAY   PTCLDY     9   3  78 CALM      30.32S
GREEN BAY      CLOUDY     7   3  84 SW3       30.34S
MANITOWOC      MOCLDY    10   6  84 W6        30.35R WCI   0
APPLETON       CLOUDY     9   3  78 SW3       30.33S
CLINTONVILLE   PTCLDY     5   0  78 CALM      30.32F
OSHKOSH        CLOUDY    10   2  69 MISG      30.33S
$$

WIZ032>034-041-042-053>061-281000-
SOUTHWEST WISCONSIN

CITY           SKY/WX    TMP DP  RH WIND       PRES   REMARKS
LA CROSSE      LGT SNOW  14   8  77 SE8       30.28F WCI   3
SPARTA         LGT SNOW  12   5  73 CALM      30.29S
VIROQUA        CLOUDY    11   8  85 SE8       30.23F WCI  -1
BOSCOBEL       CLOUDY    15   7  70 CALM      30.32F
PRAIRIE DU CHI CLOUDY    15   7  69 E5        30.29S WCI   8
PLATTEVILLE    CLOUDY    14   8  78 CALM      30.29F
$$

WIZ056-057-062-063-064-067-068-281000-
SOUTH CENTRAL WISCONSIN

CITY           SKY/WX    TMP DP  RH WIND       PRES   REMARKS
REEDSBURG      CLOUDY    11   5  77 SE3       30.29F
BARABOO/DELLS  CLOUDY    12   5  74 SE5       30.28F WCI   4
LONE ROCK      FLURRIES  17   7  64 E8        30.31F WCI   7
MINERAL POINT  CLOUDY    16   9  73 SE6       30.26F WCI   7
MADISON        CLOUDY    14   7  73 SE6       30.32F WCI   5
MIDDLETON      CLOUDY    16   8  72 SE6       30.31F WCI   7
WATERTOWN      CLOUDY    11   8  87 CALM      30.33F
MONROE         CLOUDY    16  10  79 SE5       30.29F WCI   9
JANESVILLE     CLOUDY    18  12  79 CALM      30.33F
$$

WIZ051-052-058>065-066-070>072-281000-
SOUTHEAST WISCONSIN

CITY           SKY/WX    TMP DP  RH WIND       PRES   REMARKS
MILWAUKEE      MOCLDY    15   7  70 W5        30.36R WCI   8
WAUKESHA       MOCLDY    12   9  85 CALM      30.35S
MILWAUKEE/TIMM CLOUDY    14   9  79 CALM      30.36S
RACINE         CLOUDY    14   8  77 W5        30.38R WCI   6
BURLINGTON     CLOUDY    12   9  87 CALM      30.35F
KENOSHA        CLOUDY    14  11  87 CALM      30.36S
FOND DU LAC    MOCLDY     9   5  84 S3        30.34S
SHEBOYGAN      MOCLDY    10   4  76 W3        30.35R
WEST BEND      CLOUDY    12   9  85 CALM      30.34S
JUNEAU         CLOUDY    11   7  85 S3        30.34F
$$

LSZ147-162-281000-
LAKE SUPERIOR

STATION/POSITION TIME  TEMP    WIND        PRES    WAVE
                       AIR SEA DIR/SP/G            HT/PER
                 (UTC) (F)     (DEG/KT/KT) (MB)    (FT/S)
DEVILS ISLAND    0900   11     200/ 11/ 13 1025.3F
PORT WING        0800    7     150/  2/  5 1024.4F
SAXON HARBOR     0800    6      CALM  /  5 1025.1F
$$

LMZ867-665-643>646-281000-
LAKE MICHIGAN

STATION/POSITION TIME  TEMP    WIND        PRES    WAVE
                       AIR SEA DIR/SP/G            HT/PER
                 (UTC) (F)     (DEG/KT/KT) (MB)    (FT/S)
CHAMBERS ISLAND  0800   12     270/  3/  4 1026.8S
N MID LAKE BUOY  0850   19 42  260/  6/ 12 1027.3R   1/ 3
NORTHPORT PIER   0814   13     250/  4/  7 1026.8R
SISTER BAY       0813          290/  7/  9   N/A
KEWAUNEE LAKESHO 0800    8     290/  4/  6 1026.1F
SHEBOYGAN LAKESH 0900   11 34  270/  7/  8 1029.7R
PORT WASHINGTON  0800   13     280/  5/  6 1028.4S
MILWAUKEE LAKESH 0800   15     300/  4/  4   N/A
S MID LAKE BUOY  0850   24 42  260/  6/ 10 1028.8R   2/ 6
KENOSHA   LAKESH 0900   16     250/  3/  6 1028.1S
$$

TC  - TEMPERATURE IN CELSIUS
VSB - VISIBILITY IN STATUTE MILES
WCI - WIND CHILL INDEX
HX  - HEAT INDEX



USA.gov is the U.S. government's official web portal to all federal, state and local government web resources and services.